User: anonymous   Login
Location: Unspecified
(0.0000°N, 0.0000°E)
Time: 04:31:29
(UTC+00:00)
Language:

UNISAT 6 - Orbit

View from above orbital plane
View from above orbital plane
View from above satellite
View from above satellite

Ground track
Ground track

The orbit data is extracted from the following two-line orbital elements,

1 40012U 14033C   24057.46587132  .00004388  00000-0  59108-3 0  9991
2 40012  97.6891 224.6191 0053056 310.2389  49.4188 14.78698345521321
Epoch (UTC): 26 February 2024 11:10:51
Eccentricity: 0.0053056
inclination: 97.6891°
perigee height: 596 km
apogee height: 670 km
right ascension of ascending node: 224.6191°
argument of perigee: 310.2389°
revolutions per day: 14.78698345
mean anomaly at epoch: 49.4188°
orbit number at epoch: 52132

The dashed part of the orbit path shows where the satellite is in the earth's shadow,  

DLR